Weather History for KTVF - January, 2013

Change the Weather History Date:

Monday, January 14, 2013

  Actual Average Record
Temperature  
Mean Temperature -3 °F -  
Max Temperature 3 °F 11 °F 32 °F (1973)
Min Temperature -9 °F 0 °F -29 °F (2009)
Degree Days  
Heating Degree Days 68    
Moisture  
Dew Point -4 °F    
Average Humidity 84    
Maximum Humidity 100    
Minimum Humidity 66    
Precipitation  
Precipitation 0.00 in - - ()
Sea Level Pressure  
Sea Level Pressure 30.21 in    
Wind  
Wind Speed 8 mph (SSW)    
Max Wind Speed 13 mph    
Max Gust Speed -    
Visibility 10 miles    
Events      
Averages and records for this station are not official NWS values.
T = Trace of Precipitation, MM = Missing Value Source: NWS Daily Summary

Daily Weather History Graph

Daily Weather History Graph

Search for Another Location

Airport or City:

Trip Planner

Search our weather history database for the weather conditions in past years. The results will help you decide how hot, cold, wet, or windy it might be!

Date:

Astronomy

Jan. 14, 2013 Rise Set
Actual Time 8:10 AM CST 4:57 PM CST
Civil Twilight 7:35 AM CST 5:33 PM CST
Nautical Twilight 6:56 AM CST 6:11 PM CST
Astronomical Twilight 6:19 AM CST 6:49 PM CST
Moon 9:26 AM CST (1/14) 9:05 PM CST (1/14)
Length of Visible Light 9h 58m
Length of Day
8h 47m
Waxing Crescent, 11% of the Moon is Illuminated
Jan 14
Waxing Crescent
Jan 18
First Quarter
Jan 26
Full
Feb 3
Last Quarter
Feb 10
New

Hourly Weather History & Observations

Time (CST) Temp. Windchill Dew Point Humidity Pressure Visibility Wind Dir Wind Speed Gust Speed Precip Events Conditions
2:55 AM 1.4 °F -8.3 °F -2.2 °F 85% 30.21 in 7.0 mi SSW 4.6 mph - N/A   Overcast
3:15 AM 1.4 °F -11.3 °F -2.2 °F 85% 30.21 in 8.0 mi SSW 6.9 mph - N/A   Overcast
3:35 AM 1.4 °F -9.9 °F -0.4 °F 92% 30.21 in 10.0 mi SW 5.8 mph - N/A   Overcast
4:15 AM 1.4 °F -13.5 °F -0.4 °F 92% 30.20 in 10.0 mi WSW 9.2 mph - N/A   Overcast
4:35 AM 1.4 °F -9.9 °F -2.2 °F 85% 30.20 in 10.0 mi WSW 5.8 mph - N/A   Overcast
4:55 AM 1.4 °F -9.9 °F -2.2 °F 85% 30.20 in 10.0 mi SW 5.8 mph - N/A   Overcast
5:15 AM -0.4 °F -10.4 °F -5.8 °F 78% 30.20 in 10.0 mi SW 4.6 mph - N/A   Overcast
5:35 AM -0.4 °F -12.0 °F -5.8 °F 78% 30.20 in 10.0 mi SW 5.8 mph - N/A   Scattered Clouds
5:55 AM -2.2 °F -15.6 °F -7.6 °F 78% 30.20 in 10.0 mi SW 6.9 mph - N/A   Clear
6:15 AM -2.2 °F -14.2 °F -4.0 °F 92% 30.20 in 10.0 mi SW 5.8 mph - N/A   Clear
6:35 AM -5.8 °F -19.9 °F -9.4 °F 84% 30.20 in 10.0 mi South 6.9 mph - N/A   Scattered Clouds
7:35 AM -7.6 °F -20.6 °F -11.2 °F 84% 30.23 in 10.0 mi SW 5.8 mph - N/A   Clear
7:55 AM -7.6 °F - -7.6 °F 100% 30.23 in 10.0 mi Calm Calm - N/A   Clear
8:15 AM -7.6 °F -18.8 °F -14.8 °F 71% 30.24 in 10.0 mi South 4.6 mph - N/A   Clear
8:35 AM -9.4 °F -24.3 °F -14.8 °F 77% 30.24 in 10.0 mi South 6.9 mph - N/A   Clear
8:55 AM -7.6 °F -20.6 °F -7.6 °F 100% 30.25 in 10.0 mi SSW 5.8 mph - N/A   Clear
9:15 AM -5.8 °F -21.2 °F -9.4 °F 84% 30.25 in 10.0 mi SW 8.1 mph - N/A   Clear
9:35 AM -5.8 °F -22.4 °F -7.6 °F 92% 30.26 in 10.0 mi SSW 9.2 mph - N/A   Clear
9:55 AM -4.0 °F -20.2 °F -5.8 °F 92% 30.25 in 10.0 mi SSW 9.2 mph - N/A   Clear
10:15 AM -2.2 °F -18.0 °F -7.6 °F 78% 30.26 in 10.0 mi SSW 9.2 mph - N/A   Clear
10:35 AM -2.2 °F -18.0 °F -5.8 °F 85% 30.26 in 10.0 mi SW 9.2 mph - N/A   Partly Cloudy
10:55 AM -0.4 °F -16.7 °F -5.8 °F 78% 30.26 in 10.0 mi SW 10.4 mph - N/A   Mostly Cloudy
11:15 AM -0.4 °F -14.7 °F -5.8 °F 78% 30.26 in 10.0 mi SW 8.1 mph - N/A   Overcast
11:35 AM -0.4 °F -16.7 °F -2.2 °F 92% 30.26 in 10.0 mi SSW 10.4 mph - N/A   Overcast
11:55 AM -0.4 °F -16.7 °F -5.8 °F 78% 30.26 in 10.0 mi SW 10.4 mph - N/A   Overcast
12:15 PM -0.4 °F -15.7 °F -4.0 °F 85% 30.25 in 10.0 mi SW 9.2 mph - N/A   Overcast
12:35 PM 1.4 °F -14.5 °F -7.6 °F 66% 30.25 in 10.0 mi SW 10.4 mph - N/A   Overcast
12:55 PM 1.4 °F -14.5 °F -2.2 °F 85% 30.25 in 10.0 mi SW 10.4 mph - N/A   Overcast
1:15 PM 1.4 °F -15.3 °F -5.8 °F 72% 30.24 in 10.0 mi WSW 11.5 mph - N/A   Mostly Cloudy
1:35 PM 1.4 °F -15.3 °F -4.0 °F 78% 30.23 in 10.0 mi WSW 11.5 mph - N/A   Partly Cloudy
2:15 PM 3.2 °F -11.3 °F -2.2 °F 78% 30.22 in 10.0 mi SW 9.2 mph - N/A   Clear
2:35 PM 3.2 °F -11.3 °F 1.4 °F 92% 30.23 in 10.0 mi SSW 9.2 mph - N/A   Clear
2:55 PM 3.2 °F -11.3 °F -2.2 °F 78% 30.23 in 10.0 mi SSW 9.2 mph - N/A   Clear
3:15 PM 3.2 °F -10.3 °F -2.2 °F 78% 30.22 in 10.0 mi SSW 8.1 mph - N/A   Clear
3:35 PM 3.2 °F -12.2 °F -2.2 °F 78% 30.22 in 10.0 mi South 10.4 mph - N/A   Clear
3:55 PM 3.2 °F -10.3 °F -2.2 °F 78% 30.21 in 10.0 mi SSW 8.1 mph - N/A   Clear
4:15 PM 3.2 °F -9.1 °F -4.0 °F 72% 30.21 in 10.0 mi South 6.9 mph - N/A   Clear
4:35 PM 1.4 °F -11.3 °F -4.0 °F 78% 30.20 in 10.0 mi SSW 6.9 mph - N/A   Clear
4:55 PM 1.4 °F -12.5 °F -4.0 °F 78% 30.20 in 10.0 mi SSW 8.1 mph - N/A   Scattered Clouds
5:15 PM 1.4 °F -14.5 °F -0.4 °F 92% 30.19 in 10.0 mi South 10.4 mph - N/A   Overcast
5:35 PM 1.4 °F -13.5 °F -5.8 °F 72% 30.19 in 10.0 mi South 9.2 mph - N/A   Overcast
5:55 PM 1.4 °F -12.5 °F -0.4 °F 92% 30.19 in 10.0 mi SSW 8.1 mph - N/A   Mostly Cloudy
6:15 PM 1.4 °F -13.5 °F -0.4 °F 92% 30.19 in 10.0 mi SSW 9.2 mph - N/A   Mostly Cloudy
6:35 PM 1.4 °F -13.5 °F -4.0 °F 78% 30.20 in 10.0 mi SW 9.2 mph - N/A   Scattered Clouds
6:55 PM 1.4 °F -13.5 °F -4.0 °F 78% 30.20 in 10.0 mi SSW 9.2 mph - N/A   Clear
7:15 PM -0.4 °F -13.4 °F -5.8 °F 78% 30.20 in 10.0 mi SSW 6.9 mph - N/A   Partly Cloudy
7:35 PM 1.4 °F -13.5 °F -0.4 °F 92% 30.20 in 10.0 mi SSW 9.2 mph - N/A   Clear
7:55 PM 1.4 °F -12.5 °F -2.2 °F 85% 30.20 in 10.0 mi SSW 8.1 mph - N/A   Scattered Clouds
8:15 PM 3.2 °F -12.2 °F -2.2 °F 78% 30.19 in 10.0 mi South 10.4 mph - N/A   Overcast
8:35 PM 3.2 °F -12.2 °F -0.4 °F 85% 30.18 in 10.0 mi South 10.4 mph - N/A   Overcast
8:55 PM 3.2 °F -13.9 °F 1.4 °F 92% 30.18 in 10.0 mi SSW 12.7 mph - N/A   Mostly Cloudy
9:15 PM 3.2 °F -12.2 °F -0.4 °F 85% 30.17 in 10.0 mi SSW 10.4 mph - N/A   Clear
9:35 PM 3.2 °F -11.3 °F -0.4 °F 85% 30.17 in 10.0 mi South 9.2 mph - N/A   Clear
9:55 PM 1.4 °F -13.5 °F -0.4 °F 92% 30.16 in 10.0 mi SSW 9.2 mph - N/A   Clear
10:15 PM 3.2 °F -12.2 °F -0.4 °F 85% 30.16 in 10.0 mi SSW 10.4 mph - N/A   Clear
10:35 PM 3.2 °F -12.2 °F 3.2 °F 100% 30.15 in 10.0 mi SSW 10.4 mph - N/A   Clear
10:55 PM 3.2 °F -13.1 °F 1.4 °F 92% 30.14 in 10.0 mi SSW 11.5 mph - N/A   Clear
11:15 PM 3.2 °F -12.2 °F -2.2 °F 78% 30.14 in 10.0 mi SSW 10.4 mph - N/A   Clear
11:35 PM 1.4 °F -13.5 °F -0.4 °F 92% 30.14 in 10.0 mi SSW 9.2 mph - N/A   Clear
11:55 PM 1.4 °F -11.3 °F -0.4 °F 92% 30.14 in 10.0 mi SSW 6.9 mph - N/A   Clear